Weerstation Grootegast  Weerstation Grootegast


15 daagse weersverwachting Milano (IT)

  • Overzicht
  • Per uur
  • 15 dagen
  • Extra
  • Vergelijk
  • Kaarten
  • Dagkaart
  • Meer »
  • Info
  • Statistieken
  • Directe link
    Temp 6h Neerslag Wind  
 07:11     19:21    Daglengte: 12:10 Vandaag
08:00
18°
 
1
warningclass
14:00
24°
0.6 mm
1
20:00
21°
 
2
 07:12     19:19    Daglengte: 12:07 Morgen
02:00
19°
3.1 mm
2
08:00
18°
3.6 mm
1
14:00
22°
6.3 mm
2
warningclass
20:00
19°
8.3 mm
2
 07:14     19:18    Daglengte: 12:04 Woensdag 23 Sep
02:00
17°
7.4 mm
2
08:00
17°
7.3 mm
1
14:00
21°
11.1 mm
1
20:00
20°
 
1
Locatie info
Region: Lombardia
Latitude: 45.4680°N
Longitude: 9.1818°E
127 masl
Postcode: 20121
Temp/Neerslag /Baro Onweer/Dauwpunt
    Temp Baro 1h Neerslag Dauwpunt Wind UV Bewolking  
 07:11     19:21    Daglengte: 12:10 Vandaag
03:00
18°
1015.5 hPa
14%
16.7°
1
Windvlaag: -0.2 m/s
23%
04:00
18°
1015.2 hPa
37%
16.3°
1
Windvlaag: 0.1 m/s
22%
05:00
17°
1015.1 hPa
37%
16.3°
1
Windvlaag: 0.3 m/s
26%
06:00
18°
1015.1 hPa
80%
15.8°
1
Windvlaag: 0.4 m/s
34%
07:00
18°
1015.4 hPa
79%
15.9°
1
Windvlaag: 0.3 m/s
34%
08:00
18°
1015.8 hPa
76%
15.9°
1
Windvlaag: 0 m/s
47% warningclass
09:00
18°
1016.0 hPa
79%
16.2°
1
Windvlaag: -0 m/s
33%
10:00
20°
1016.4 hPa
74%
17.0°
2
Windvlaag: -0.5 m/s
45%
11:00
21°
1016.5 hPa
37%
17.6°
1
Windvlaag: -0.4 m/s
39%
12:00
22°
1016.4 hPa
73%
17.6°
1
Windvlaag: 0 m/s
33%
13:00
23°
1016.0 hPa 0.4 mm
77%
17.0°
1
Windvlaag: 0.8 m/s
13%
14:00
24°
1015.6 hPa 0.3 mm
80%
16.6°
1
Windvlaag: 1.2 m/s
17%
15:00
24°
1014.9 hPa
80%
16.1°
2
Windvlaag: 1.3 m/s
26%
16:00
24°
1014.7 hPa
79%
17.7°
2
Windvlaag: 1.4 m/s
32%
17:00
23°
1014.4 hPa
43%
17.8°
2
Windvlaag: 1.4 m/s
40%
18:00
23°
1014.4 hPa
38%
17.6°
2
Windvlaag: 1.9 m/s
63%
19:00
22°
1014.6 hPa
31%
18.1°
1
Windvlaag: 2 m/s
64%
20:00
21°
1015.0 hPa
31%
17.7°
2
Windvlaag: 0.9 m/s
63%
21:00
20°
1015.4 hPa 0.5 mm
75%
17.7°
2
Windvlaag: 0.5 m/s
69%
22:00
20°
1015.6 hPa 0.4 mm
82%
17.9°
2
Windvlaag: 0.2 m/s
67%
23:00
19°
1015.6 hPa 0.4 mm
82%
17.9°
1
Windvlaag: -0.1 m/s
58%
 07:12     19:19    Daglengte: 12:07 Morgen
00:00
19°
1015.6 hPa 0.7 mm
82%
17.7°
2
Windvlaag: 0.1 m/s
64%
01:00
19°
1015.3 hPa 0.4 mm
82%
17.4°
2
Windvlaag: 0.2 m/s
65%
02:00
19°
1015.2 hPa 0.7 mm
80%
17.0°
2
Windvlaag: 0.1 m/s
62%
03:00
18°
1014.9 hPa 0.8 mm
77%
16.9°
2
Windvlaag: -0.4 m/s
62% warningclass
04:00
18°
1014.6 hPa 0.7 mm
80%
16.9°
2
Windvlaag: -0.3 m/s
64% warningclass
05:00
18°
1014.2 hPa 0.7 mm
77%
16.7°
1
Windvlaag: -0.2 m/s
62% warningclass
06:00
18°
1014.2 hPa 0.5 mm
70%
16.7°
1
Windvlaag: -0.1 m/s
73%
07:00
18°
1014.1 hPa
29%
16.6°
1
Windvlaag: 0.9 m/s
75%
08:00
18°
1014.5 hPa 1.0 mm
17%
16.7°
1
Windvlaag: -0.3 m/s
77%
09:00
18°
1014.7 hPa 0.9 mm
74%
16.6°
1
Windvlaag: -0.2 m/s
75%
10:00
19°
1014.9 hPa 1.4 mm
77%
16.6°
2
Windvlaag: -0.2 m/s
80%
11:00
19°
1014.8 hPa 1.1 mm
82%
16.8°
2
Windvlaag: -0 m/s
86% warningclass
12:00
20°
1014.5 hPa 1.1 mm
82%
16.9°
2
Windvlaag: 0.2 m/s
77% warningclass
13:00
21°
1013.9 hPa 1.0 mm
82%
16.5°
2
Windvlaag: 0.9 m/s
78% warningclass
14:00
22°
1013.4 hPa 0.9 mm
81%
16.2°
2
Windvlaag: 1 m/s
81% warningclass
15:00
21°
1012.8 hPa 1.4 mm
41%
16.1°
2
Windvlaag: 0.9 m/s
76% warningclass
16:00
21°
1012.2 hPa 1.3 mm
80%
15.7°
1
Windvlaag: 0.9 m/s
72%
17:00
21°
1011.8 hPa 1.1 mm
76%
15.5°
1
Windvlaag: 0.7 m/s
71%
18:00
21°
1011.6 hPa 1.4 mm
80%
15.2°
1
Windvlaag: 0.2 m/s
84%
19:00
20°
1011.8 hPa 1.9 mm
76%
15.4°
1
Windvlaag: 0.2 m/s
85%
20:00
19°
1011.9 hPa 1.3 mm
74%
15.9°
2
Windvlaag: 0.1 m/s
86%
21:00
19°
1012.0 hPa 1.4 mm
76%
16.3°
2
Windvlaag: -0.5 m/s
84%
22:00
18°
1012.3 hPa 1.3 mm
72%
16.8°
2
Windvlaag: -0.5 m/s
83% warningclass
23:00
18°
1012.7 hPa
91%
16.6°
1
Windvlaag: -0.5 m/s
88%
 07:14     19:18    Daglengte: 12:04 Woensdag 23 Sep
00:00
18°
1012.5 hPa 1.7 mm
53%
16.4°
1
Windvlaag: -0.4 m/s
90%
01:00
17°
1012.2 hPa 1.6 mm
94%
16.3°
2
Windvlaag: -0.5 m/s
93%
02:00
17°
1011.7 hPa 1.4 mm
100%
16.1°
2
Windvlaag: -0.5 m/s
98%
03:00
17°
1011.3 hPa 1.5 mm
100%
16.1°
1
Windvlaag: -0.2 m/s
96%
04:00
17°
1011.0 hPa 1.3 mm
100%
16.1°
1
Windvlaag: -0.2 m/s
98%
05:00
17°
1010.7 hPa 1.4 mm
100%
16.0°
1
Windvlaag: -0.2 m/s
96%
06:00
17°
1010.7 hPa 1.5 mm
100%
16.0°
1
Windvlaag: -0.2 m/s
99%
07:00
17°
1010.8 hPa
98%
16.0°
1
Windvlaag: 0.2 m/s
100%
08:00
17°
1011.0 hPa 1.6 mm
100%
15.9°
1
Windvlaag: 0.5 m/s
96%
09:00
17°
1010.6 hPa 1.6 mm
97%
15.7°
1
Windvlaag: 0.2 m/s
90%
10:00
18°
1010.9 hPa 2.0 mm
41%
15.5°
1
Windvlaag: 0.2 m/s
77%
11:00
19°
1011.0 hPa 2.0 mm
37%
15.8°
1
Windvlaag: 0.2 m/s
82%
12:00
19°
1010.9 hPa 1.3 mm
82%
16.1°
1
Windvlaag: 0.4 m/s
79%
13:00
20°
1010.5 hPa 2.0 mm
38%
16.5°
1
Windvlaag: 0.3 m/s
60%
14:00
21°
1010.0 hPa 2.0 mm
40%
16.8°
1
Windvlaag: 0.3 m/s
77%
15:00
21°
1009.7 hPa
32%
16.9°
1
Windvlaag: 2.8 m/s
64%
16:00
21°
1009.4 hPa
42%
17.1°
1
Windvlaag: 2.8 m/s
57%
17:00
21°
1009.1 hPa
90%
17.2°
1
Windvlaag: 3.1 m/s
45%
18:00
20°
1008.9 hPa
75%
17.2°
1
Windvlaag: 4.4 m/s
51%
19:00
20°
1008.8 hPa
25%
17.1°
1
Windvlaag: 4.5 m/s
48%
20:00
20°
1009.0 hPa
22%
16.9°
1
Windvlaag: 0.4 m/s
43%
21:00
19°
1009.2 hPa
72%
16.7°
1
Windvlaag: 4.4 m/s
41%
22:00
19°
1009.3 hPa
67%
16.6°
1
Windvlaag: 5.7 m/s
38%
23:00
18°
1009.6 hPa
77%
16.5°
1
Windvlaag: 6.2 m/s
36%
 07:15     19:16    Daglengte: 12:01 Donderdag 24 Sep
00:00
18°
1009.8 hPa
82%
16.5°
1
Windvlaag: 5.6 m/s
34%
01:00
18°
1009.8 hPa
44%
16.4°
1
Windvlaag: 3.4 m/s
32%
02:00
17°
1009.8 hPa 2.1 mm
85%
16.2°
1
Windvlaag: 0.6 m/s
29%
Temp/Neerslag /Baro Onweer/Dauwpunt
    Temp Baro Neerslag Dauwpunt Wind Bewolking  
 07:11     19:21    Daglengte: 12:10 Vandaag
05:00
17°
1015.1 hPa   16.3°
1
26%
08:00
18°
1015.8 hPa   15.9°
1
47% warningclass
11:00
21°
1016.5 hPa   17.6°
1
39%
14:00
24°
1015.6 hPa 0.6 mm 16.6°
1
17%
17:00
23°
1014.4 hPa   17.8°
2
40%
20:00
21°
1015.0 hPa   17.7°
2
63%
23:00
19°
1015.6 hPa 1.3 mm 17.9°
1
58%
 07:12     19:19    Daglengte: 12:07 Morgen
02:00
19°
1015.2 hPa 1.8 mm 17.0°
2
62%
05:00
18°
1014.2 hPa 2.1 mm 16.7°
1
62% warningclass
08:00
18°
1014.5 hPa 1.4 mm 16.7°
1
77%
11:00
19°
1014.8 hPa 3.3 mm 16.8°
2
86% warningclass
14:00
22°
1013.4 hPa 3.0 mm 16.2°
2
81% warningclass
17:00
21°
1011.8 hPa 3.7 mm 15.5°
1
71%
20:00
19°
1011.9 hPa 4.6 mm 15.9°
2
86%
23:00
18°
1012.7 hPa 2.7 mm 16.6°
1
88%
 07:14     19:18    Daglengte: 12:04 Woensdag 23 Sep
02:00
17°
1011.7 hPa 4.8 mm 16.1°
2
98%
05:00
17°
1010.7 hPa 4.2 mm 16.0°
1
96%
08:00
17°
1011.0 hPa 3.1 mm 15.9°
1
96%
11:00
19°
1011.0 hPa 5.7 mm 15.8°
1
82%
14:00
21°
1010.0 hPa 5.4 mm 16.8°
1
77%
17:00
21°
1009.1 hPa   17.2°
1
45%
20:00
20°
1009.0 hPa   16.9°
1
43%
23:00
18°
1009.6 hPa   16.5°
1
36%
 07:15     19:16    Daglengte: 12:01 Donderdag 24 Sep
02:00
17°
1009.8 hPa 6.0 mm 16.2°
1
29%
05:00
17°
1010.8 hPa 54.3 mm 15.4°
1
60%
08:00
17°
1010.9 hPa 54.3 mm 15.2°
1
79%
11:00
20°
1011.1 hPa 54.6 mm 16.2°
1
60%
14:00
22°
1011.2 hPa 56.1 mm 16.9°
1
41%
17:00
21°
1010.5 hPa 57.4 mm 17.4°
2
65%
20:00
19°
1009.8 hPa 58.6 mm 17.7°
2
88%
23:00
18°
1008.5 hPa 59.2 mm 16.9°
2
90%
 07:16     19:14    Daglengte: 11:58 Vrijdag 25 Sep
02:00
17°
1007.2 hPa 59.7 mm 16.2°
3
91%
05:00
17°
1005.1 hPa 61.0 mm 16.3°
3
91%
08:00
17°
1003.2 hPa 62.0 mm 16.4°
4
92%
11:00
19°
1001.7 hPa 64.1 mm 16.8°
2
86%
14:00
21°
1000.2 hPa 69.6 mm 16.8°
1
80%
17:00
18°
999.4 hPa 70.5 mm 15.1°
1
83%
20:00
15°
998.6 hPa 70.8 mm 13.5°
2
87%
23:00
13°
997.9 hPa 74.3 mm 10.6°
5
89%
 07:17     19:12    Daglengte: 11:55 Zaterdag 26 Sep
02:00
11°
997.3 hPa 81.9 mm 7.5°
8
90%
05:00
11°
997.5 hPa 86.7 mm 6.6°
8
91%
08:00
11°
997.8 hPa 88.3 mm 5.9°
7
92%
11:00
14°
999.8 hPa 88.3 mm 5.4°
6
73%
14:00
17°
1001.7 hPa 88.3 mm 4.0°
5
54%
17:00
16°
1002.9 hPa 88.3 mm 2.2°
5
72%
20:00
15°
1004.4 hPa 88.3 mm 0.5°
5
91%
23:00
13°
1005.5 hPa 88.3 mm 2.3°
3
60%
 07:18     19:10    Daglengte: 11:52 Zondag 27 Sep
02:00
11°
1006.5 hPa 88.3 mm 3.2°
1
28%
05:00
10°
Voelt als: 9.6°
1007.8 hPa 88.3 mm 4.9°
1
56%
08:00
Voelt als: 9.1°
1009.3 hPa 88.3 mm 6.2°
1
85%
11:00
13°
1010.1 hPa 88.3 mm 6.5°
1
65%
14:00
17°
1011.0 hPa 88.3 mm 5.4°
1
46%
17:00
16°
1012.0 hPa 88.3 mm 6.7°
2
33%
20:00
14°
1013.3 hPa 88.3 mm 7.5°
2
21%
23:00
12°
1015.0 hPa 88.3 mm 7.2°
2
10%
 07:20     19:08    Daglengte: 11:48 Maandag 28 Sep
02:00
10°
Voelt als: 9.3°
1016.5 hPa 176.6 mm 6.7°
2
0%
08:00
Voelt als: 8.4°
1018.7 hPa 176.6 mm 6.0°
1
2%
14:00
19°
1020.9 hPa 176.6 mm 8.2°
1
0%
20:00
16°
1021.5 hPa 176.6 mm 7.6°
1
0%
 07:21     19:06    Daglengte: 11:45 Dinsdag 29 Sep
02:00
10°
Voelt als: 9.7°
1022.9 hPa 176.6 mm 7.7°
1
0%
08:00
1022.1 hPa 176.6 mm 7.5°
1
11%
14:00
20°
1020.5 hPa 176.6 mm 9.5°
1
35%
20:00
15°
1017.9 hPa 176.7 mm 10.0°
2
0%
 07:22     19:04    Daglengte: 11:42 Woensdag 30 Sep
02:00
12°
1017.7 hPa 177.3 mm 8.3°
2
0%
08:00
13°
1016.2 hPa 177.3 mm 8.6°
0
0%
14:00
23°
1014.7 hPa 177.3 mm 8.4°
1
1%
20:00
20°
1015.0 hPa 177.3 mm 11.5°
1
0%
 07:24     19:02    Daglengte: 11:38 Donderdag 01 Okt
02:00
13°
1020.6 hPa 0.2 mm 8.9°
2
15%
08:00
12°
1020.0 hPa   8.4°
2
21%
14:00
20°
1018.2 hPa   10.7°
1
29%
20:00
15°
1018.0 hPa   10.8°
1
25%
 07:25     19:00    Daglengte: 11:35 Vrijdag 02 Okt
02:00
14°
1018.0 hPa 0.3 mm 10.0°
1
31%
08:00
13°
1017.3 hPa 0.7 mm 9.8°
2
31%
14:00
21°
1016.1 hPa 0.4 mm 11.9°
1
27%
20:00
16°
1016.5 hPa 0.3 mm 11.5°
1
27%
 07:26     18:58    Daglengte: 11:32 Zaterdag 03 Okt
02:00
14°
1017.3 hPa 0.4 mm 10.3°
1
25%
08:00
13°
1017.6 hPa 0.2 mm 9.5°
2
27%
14:00
20°
1016.7 hPa 0.4 mm 11.2°
1
29%
20:00
15°
1017.2 hPa 0.7 mm 10.6°
1
26%
 07:27     18:57    Daglengte: 11:30 Zondag 04 Okt
02:00
14°
1018.1 hPa 1.5 mm 9.5°
2
27%
08:00
13°
1018.1 hPa 0.9 mm 8.9°
1
32%
14:00
20°
1017.5 hPa 0.5 mm 10.5°
1
32%
20:00
15°
1018.3 hPa 0.3 mm 10.3°
1
24%
 07:29     18:55    Daglengte: 11:26 Maandag 05 Okt
02:00
14°
1019.1 hPa 0.5 mm 9.0°
2
26%
08:00
13°
1018.6 hPa 0.3 mm 8.6°
1
34%
14:00
20°
1017.5 hPa 0.3 mm 11.1°
1
30%
20:00
15°
1017.6 hPa 1.0 mm 10.8°
1
24%
 07:30     18:53    Daglengte: 11:23 Dinsdag 06 Okt
02:00
14°
1018.1 hPa 0.6 mm 9.5°
2
24%
  CAPE Lifted Index Hail Supercell Tornado SRH 3km CL BTM PRES CL TOP PRES Swiss DWD icon SMHI TS
 07:11     19:21    Daglengte: 12:10 Vandaag
03:00 48 J/kg -1.5 K 0 % 0 % 0 % 0 m²/s² 0 0 0.96 2
04:00 1 J/kg -1.0 K 0 % 0 % 0 % 0 m²/s² 0 0 1.22 2
05:00 0 J/kg -1.3 K 0 % 0 % 0 % 0 m²/s² 0 0 0.86 2
06:00 0 J/kg -1.8 K 0 % 0 % 0 % 0 m²/s² 0 0 0.24 80
07:00 0 J/kg -1.8 K 0 % 0 % 0 % 0 m²/s² 0 0 0.03 80
08:00 0 J/kg -2.0 K 0 % 0 % 0 % 0 m²/s² 0 0 -0.47 95
09:00 0 J/kg -1.8 K 0 % 0 % 0 % 0 m²/s² 0 0 -0.21 80
10:00 24 J/kg -1.9 K 0 % 0 % 0 % 0 m²/s² 0 0 -0.7 3
11:00 224 J/kg -1.8 K 0 % 0 % 0 % 0 m²/s² 0 0 -0.66 3
12:00 499 J/kg -2.0 K 0 % 0 % 0 % 0 m²/s² 0 0 -0.8 2
13:00 707 J/kg -2.7 K 0 % 0 % 0 % 0 m²/s² 0 0 -1.56 80
14:00 770 J/kg -2.8 K 0 % 0 % 0 % 0 m²/s² 0 0 -1.33 2
15:00 772 J/kg -3.0 K 0 % 0 % 0 % 0 m²/s² 0 0 -1.74 3
16:00 599 J/kg -2.3 K 0 % 0 % 0 % 0 m²/s² 0 0 -0.71 3
17:00 532 J/kg -2.4 K 0 % 0 % 0 % 0 m²/s² 0 0 -0.81 3
18:00 699 J/kg -2.5 K 0 % 0 % 0 % 0 m²/s² 0 0 -1.18 3
19:00 849 J/kg -3.1 K 0 % 0 % 0 % 0 m²/s² 0 0 -1.96 3
20:00 951 J/kg -3.6 K 0 % 0 % 0 % 0 m²/s² 0 0 -2.55 3
21:00 828 J/kg -3.3 K 0 % 0 % 0 % 0 m²/s² 0 0 -1.86 3
22:00 739 J/kg -3.2 K 0 % 0 % 0 % 0 m²/s² 0 0 -1.55 80
23:00 722 J/kg -3.5 K 0 % 0 % 0 % 0 m²/s² 0 0 -1.85 3
 07:12     19:19    Daglengte: 12:07 Morgen
00:00 653 J/kg -3.2 K 0 % 0 % 0 % 0 m²/s² 0 0 -1.85 80
01:00 551 J/kg -2.9 K 0 % 0 % 0 % 0 m²/s² 0 0 -1.43 80
02:00 509 J/kg -3.2 K 0 % 0 % 0 % 0 m²/s² 0 0 -2 80
03:00 479 J/kg -3.4 K 0 % 0 % 0 % 0 m²/s² 0 0 -2.44 80
04:00 435 J/kg -3.0 K 0 % 0 % 0 % 0 m²/s² 0 0 -2.1 80
05:00 452 J/kg -2.6 K 0 % 0 % 0 % 0 m²/s² 0 0 -1.79 95
06:00 387 J/kg -2.8 K 0 % 0 % 0 % 0 m²/s² 0 0 -2.38 80
07:00 220 J/kg -2.8 K 0 % 0 % 0 % 0 m²/s² 0 0 -2.08 3
08:00 172 J/kg -2.5 K 0 % 0 % 0 % 0 m²/s² 0 0 -1.87 3
09:00 216 J/kg -2.2 K 0 % 0 % 0 % 0 m²/s² 0 0 -2.11 3
10:00 224 J/kg -2.5 K 0 % 0 % 0 % 0 m²/s² 0 0 -2.2 80
11:00 484 J/kg -2.7 K 0 % 0 % 0 % 0 m²/s² 0 0 -2.49 80
12:00 705 J/kg -2.6 K 0 % 0 % 0 % 0 m²/s² 0 0 -2.21 95
13:00 791 J/kg -2.8 K 0 % 0 % 0 % 0 m²/s² 0 0 -2.14 95
14:00 891 J/kg -3.4 K 0 % 0 % 0 % 0 m²/s² 0 0 -2.5 80
15:00 874 J/kg -3.4 K 0 % 0 % 0 % 0 m²/s² 0 0 -2.44 80
16:00 589 J/kg -2.5 K 0 % 0 % 0 % 0 m²/s² 0 0 -1.51 80
17:00 561 J/kg -2.3 K 0 % 0 % 0 % 0 m²/s² 0 0 -1.4 3
18:00 124 J/kg -0.8 K 0 % 0 % 0 % 0 m²/s² 0 0 0.73 3
19:00 51 J/kg -1.2 K 0 % 0 % 0 % 0 m²/s² 0 0 -0.09 80
20:00 168 J/kg -1.0 K 0 % 0 % 0 % 0 m²/s² 0 0 -0.7 80
21:00 0 J/kg 0.5 K 0 % 0 % 0 % 0 m²/s² 0 0 0.98 80
22:00 0 J/kg 0.1 K 0 % 0 % 0 % 0 m²/s² 0 0 0.82 95
23:00 155 J/kg -0.7 K 0 % 0 % 0 % 0 m²/s² 0 0 -0.43 80
 07:14     19:18    Daglengte: 12:04 Woensdag 23 Sep
00:00 84 J/kg -0.5 K 0 % 0 % 0 % 0 m²/s² 0 0 -0.02 45
01:00 78 J/kg -0.3 K 0 % 0 % 0 % 0 m²/s² 0 0 0.45 45
02:00 78 J/kg 0.1 K 0 % 0 % 0 % 0 m²/s² 0 0 1 45
03:00 79 J/kg 0.2 K 0 % 0 % 0 % 0 m²/s² 0 0 0.59 45
04:00 22 J/kg -0.3 K 0 % 0 % 0 % 0 m²/s² 0 0 0.3 80
05:00 10 J/kg -0.2 K 0 % 0 % 0 % 0 m²/s² 0 0 0.73 80
06:00 0 J/kg 0.2 K 0 % 0 % 0 % 0 m²/s² 0 0 1.31 80
07:00 9 J/kg 0.0 K 0 % 0 % 0 % 0 m²/s² 0 0 1.05 45
08:00 3 J/kg -0.2 K 0 % 0 % 0 % 0 m²/s² 0 0 0.94 80
09:00 36 J/kg -0.4 K 0 % 0 % 0 % 0 m²/s² 0 0 0.5 80
10:00 67 J/kg -0.4 K 0 % 0 % 0 % 0 m²/s² 0 0 0.32 45
11:00 37 J/kg -0.2 K 0 % 0 % 0 % 0 m²/s² 0 0 0.61 3
12:00 184 J/kg -0.9 K 0 % 0 % 0 % 0 m²/s² 0 0 -0.24 3
13:00 208 J/kg -1.1 K 0 % 0 % 0 % 0 m²/s² 0 0 -0.5 95
14:00 195 J/kg -1.1 K 0 % 0 % 0 % 0 m²/s² 0 0 -0.59 80
15:00 299 J/kg -1.4 K 0 % 0 % 0 % 0 m²/s² 0 0 -0.83 3
16:00 294 J/kg -1.3 K 0 % 0 % 0 % 0 m²/s² 0 0 -0.82 3
17:00 308 J/kg -1.4 K 0 % 0 % 0 % 0 m²/s² 0 0 -0.8 3
18:00 431 J/kg -2.1 K 0 % 0 % 0 % 0 m²/s² 0 0 -1.53 3
19:00 363 J/kg -1.9 K 0 % 0 % 0 % 0 m²/s² 0 0 -0.94 3
20:00 226 J/kg -1.5 K 0 % 0 % 0 % 0 m²/s² 0 0 -0.45 3
21:00 238 J/kg -1.6 K 0 % 0 % 0 % 0 m²/s² 0 0 -0.19 3
22:00 317 J/kg -2.0 K 0 % 0 % 0 % 0 m²/s² 0 0 -0.41 3
23:00 543 J/kg -2.9 K 0 % 0 % 0 % 0 m²/s² 0 0 -1.31 3
 07:15     19:16    Daglengte: 12:01 Donderdag 24 Sep
00:00 649 J/kg -3.3 K 0 % 0 % 0 % 0 m²/s² 0 0 -0.72 3
01:00 661 J/kg -3.5 K 0 % 0 % 0 % 0 m²/s² 0 0 -0.44 3
02:00 523 J/kg -3.1 K 0 % 0 % 0 % 0 m²/s² 0 0 0.41 3
Temp Baro Wind Neerslag
  EWN Forecast EWN WRFDA DWD ICON FMI HIRLAM MET Norway GFS
 07:11     19:21    Daglengte: 12:10 Vandaag
05:00 17.5° 1015.1 hPa 1.5 m/s 0.0 mm 19.8° 1014.2 hPa 3.3 m/s 3.0 mm 17.5° 1015.1 hPa 0.8 m/s -2.0 mm 17.3° 1015.2 hPa 1.3 m/s 0.0 mm 16.4° 1015.1 hPa 1.9 m/s 19.0° 1015.9 hPa 2.2 m/s
08:00 17.7° 1015.8 hPa 1.4 m/s 0.0 mm 18.7° 1015.2 hPa 3.0 m/s 3.0 mm 17.3° 1015.3 hPa 1.1 m/s 2.7 mm 18.6° 1015.9 hPa 2.4 m/s 0.0 mm 17.1° 1016.0 hPa 0.8 m/s 18.8° 1016.5 hPa 1.6 m/s
11:00 20.8° 1016.5 hPa 1.4 m/s 0.0 mm 21.5° 1015.4 hPa 1.6 m/s 3.0 mm 20.9° 1016.3 hPa 1.7 m/s 0.5 mm 20.9° 1016.5 hPa 2.4 m/s 0.0 mm 20.0° 1016.7 hPa 0.9 m/s 22.8° 1016.4 hPa 1.9 m/s
14:00 23.5° 1015.6 hPa 1.4 m/s 0.6 mm 25.0° 1014.6 hPa 1.8 m/s 3.0 mm 23.3° 1015.6 hPa 1.3 m/s 0.5 mm 24.8° 1015.2 hPa 2.4 m/s 0.0 mm 23.0° 1015.7 hPa 1.4 m/s 25.4° 1015.5 hPa 2.5 m/s
17:00 23.2° 1014.4 hPa 1.5 m/s 0.0 mm 26.2° 1012.6 hPa 2.9 m/s 3.0 mm 22.7° 1014.5 hPa 2.1 m/s 0.1 mm 24.5° 1014.0 hPa 1.7 m/s 0.0 mm 20.5° 1014.7 hPa 1.1 m/s 26.0° 1014.5 hPa 2.3 m/s
20:00 20.8° 1015.0 hPa 1.5 m/s 0.0 mm 23.8° 1013.5 hPa 4.5 m/s 3.0 mm 20.4° 1015.2 hPa 0.1 m/s 0.0 mm 22.1° 1014.4 hPa 0.4 m/s 0.0 mm 19.4° 1015.2 hPa 2.3 m/s 23.5° 1015.0 hPa 1.7 m/s
23:00 19.2° 1015.6 hPa 1.4 m/s 1.3 mm 21.3° 1014.5 hPa 4.1 m/s 3.2 mm 18.9° 1015.5 hPa 0.7 m/s 0.5 mm 19.8° 1015.1 hPa 1.2 m/s 0.0 mm 18.0° 1016.0 hPa 1.8 m/s 21.2° 1016.2 hPa 3.1 m/s
 07:12     19:19    Daglengte: 12:07 Morgen
02:00 18.5° 1015.2 hPa 1.7 m/s 1.8 mm 20.3° 1014.1 hPa 2.4 m/s 4.2 mm 18.4° 1015.2 hPa 0.6 m/s 1.4 mm 18.8° 1013.9 hPa 1.9 m/s 0.0 mm 17.5° 1015.6 hPa 1.8 m/s 20.2° 1016.0 hPa 2.7 m/s
05:00 18.0° 1014.2 hPa 1.3 m/s 2.1 mm 19.7° 1013.2 hPa 2.3 m/s 4.7 mm 17.9° 1014.3 hPa 0.1 m/s 2.3 mm 17.8° 1013.3 hPa 1.4 m/s 0.0 mm 17.6° 1014.6 hPa 1.4 m/s 19.7° 1014.9 hPa 2.9 m/s
08:00 17.8° 1014.5 hPa 1.3 m/s 1.4 mm 19.2° 1013.1 hPa 2.5 m/s 7.3 mm 17.8° 1014.5 hPa 0.4 m/s 0.3 mm 17.4° 1013.3 hPa 1.1 m/s 0.0 mm 17.6° 1015.0 hPa 1.7 m/s 18.8° 1015.1 hPa 2.4 m/s
11:00 19.4° 1014.8 hPa 1.5 m/s 3.3 mm 20.3° 1013.7 hPa 1.4 m/s 12.3 mm 18.8° 1014.8 hPa 0.8 m/s 1.3 mm 21.6° 1013.2 hPa 1.6 m/s 0.0 mm 19.2° 1015.1 hPa 2.2 m/s 20.8° 1015.0 hPa 2.8 m/s
14:00 21.6° 1013.4 hPa 2.3 m/s 3.0 mm 23.7° 1012.0 hPa 3.0 m/s 14.8 mm 19.8° 1014.1 hPa 0.9 m/s 1.7 mm 23.6° 1011.5 hPa 2.3 m/s 0.0 mm 21.5° 1013.5 hPa 3.0 m/s 23.2° 1013.9 hPa 2.4 m/s
17:00 21.4° 1011.8 hPa 1.2 m/s 3.7 mm 24.3° 1009.8 hPa 3.2 m/s 15.5 mm 20.1° 1012.3 hPa 0.8 m/s 0.7 mm 24.7° 1009.6 hPa 2.1 m/s 0.0 mm 21.1° 1012.0 hPa 0.3 m/s 23.3° 1012.2 hPa 1.7 m/s
20:00 19.1° 1011.9 hPa 1.6 m/s 4.6 mm 22.0° 1010.3 hPa 3.2 m/s 16.0 mm 18.5° 1012.2 hPa 0.4 m/s 2.1 mm 22.5° 1009.7 hPa 1.6 m/s 0.0 mm 18.4° 1012.2 hPa 1.7 m/s 21.4° 1012.2 hPa 1.7 m/s
23:00 17.7° 1012.7 hPa 1.5 m/s 2.7 mm 20.7° 1010.3 hPa 1.3 m/s 17.7 mm 17.5° 1012.5 hPa 0.9 m/s 0.8 mm 17.1° 1012.9 hPa 1.6 m/s 20.9° 1012.5 hPa 1.3 m/s
 07:14     19:18    Daglengte: 12:04 Woensdag 23 Sep
02:00 17.3° 1011.7 hPa 1.6 m/s 4.8 mm 20.2° 1009.5 hPa 0.8 m/s 17.7 mm 16.9° 1011.6 hPa 0.3 m/s 0.0 mm 16.9° 1011.9 hPa 1.9 m/s 20.1° 1012.1 hPa 2.0 m/s
05:00 16.9° 1010.7 hPa 1.3 m/s 4.2 mm 18.4° 1008.5 hPa 0.5 m/s 17.7 mm 16.6° 1010.6 hPa 0.1 m/s 2.4 mm 16.6° 1010.9 hPa 1.4 m/s 19.9° 1011.1 hPa 0.9 m/s
08:00 17.0° 1011.0 hPa 1.3 m/s 3.1 mm 18.8° 1008.9 hPa 1.7 m/s 17.7 mm 16.7° 1010.5 hPa 0.9 m/s 1.3 mm 16.6° 1011.1 hPa 1.2 m/s 19.3° 1011.5 hPa 1.9 m/s
11:00 18.6° 1011.0 hPa 0.9 m/s 5.7 mm 21.1° 1008.4 hPa 1.5 m/s 17.7 mm 18.0° 1011.1 hPa 0.8 m/s 0.8 mm 18.4° 1011.5 hPa 0.9 m/s 22.6° 1010.8 hPa 1.7 m/s
14:00 20.8° 1010.0 hPa 0.8 m/s 5.4 mm 22.5° 1008.0 hPa 1.8 m/s 17.7 mm 18.9° 1009.9 hPa 0.9 m/s 0.3 mm 20.9° 1010.5 hPa 0.5 m/s 25.0° 1009.6 hPa 2.5 m/s
17:00 20.7° 1009.1 hPa 0.7 m/s 0.0 mm 24.5° 1006.8 hPa 1.7 m/s 17.7 mm 20.7° 1008.7 hPa 0.2 m/s 0.0 mm 19.9° 1010.0 hPa 0.7 m/s 25.2° 1008.8 hPa 2.3 m/s
20:00 19.5° 1009.0 hPa 0.9 m/s 0.0 mm 24.2° 1007.1 hPa 2.2 m/s 17.7 mm 19.3° 1008.9 hPa 0.5 m/s 0.0 mm 18.8° 1009.4 hPa 0.8 m/s 22.4° 1009.9 hPa 1.2 m/s
23:00 18.2° 1009.6 hPa 0.9 m/s 0.0 mm 21.8° 1008.3 hPa 2.6 m/s 17.7 mm 18.1° 1009.6 hPa 0.3 m/s 0.0 mm 17.6° 1010.0 hPa 0.9 m/s 20.6° 1011.9 hPa 1.0 m/s
 07:15     19:16    Daglengte: 12:01 Donderdag 24 Sep
02:00 17.3° 1009.8 hPa 1.0 m/s 6.0 mm 20.7° 1008.3 hPa 1.7 m/s 17.7 mm 17.4° 1009.4 hPa 0.8 m/s 0.2 mm 16.5° 1010.5 hPa 0.9 m/s 19.8° 1012.0 hPa 0.4 m/s
05:00 16.9° 1010.8 hPa 0.8 m/s 54.3 mm 16.7° 1010.6 hPa 0.8 m/s 19.2° 1012.2 hPa 0.6 m/s 54.3 mm
08:00 17.0° 1010.9 hPa 0.8 m/s 54.3 mm 16.8° 1010.7 hPa 0.8 m/s 19.0° 1013.2 hPa 0.7 m/s 54.3 mm
11:00 19.7° 1011.1 hPa 1.2 m/s 54.6 mm 19.5° 1010.9 hPa 1.1 m/s 21.9° 1013.2 hPa 1.7 m/s 54.6 mm
14:00 22.4° 1011.2 hPa 1.5 m/s 56.1 mm 22.2° 1011.1 hPa 1.4 m/s 24.2° 1012.5 hPa 2.2 m/s 56.1 mm
17:00 20.8° 1010.5 hPa 1.7 m/s 57.4 mm 20.6° 1010.4 hPa 1.6 m/s 23.6° 1011.2 hPa 2.3 m/s 57.4 mm
20:00 19.2° 1009.8 hPa 1.9 m/s 58.6 mm 19.0° 1009.7 hPa 1.8 m/s 21.8° 1010.4 hPa 3.4 m/s 58.6 mm
23:00 18.3° 1008.5 hPa 2.4 m/s 59.2 mm 18.1° 1008.4 hPa 2.3 m/s 20.5° 1009.8 hPa 3.4 m/s 59.2 mm
 07:16     19:14    Daglengte: 11:58 Vrijdag 25 Sep
02:00 17.3° 1007.2 hPa 3.0 m/s 59.7 mm 17.1° 1007.1 hPa 2.8 m/s 19.3° 1007.9 hPa 4.7 m/s 59.7 mm
05:00 17.0° 1005.1 hPa 3.5 m/s 61.0 mm 16.9° 1005.2 hPa 3.2 m/s 18.5° 1004.5 hPa 5.7 m/s 61.0 mm
08:00 16.8° 1003.2 hPa 3.9 m/s 62.0 mm 16.7° 1003.2 hPa 3.7 m/s 18.1° 1002.6 hPa 6.5 m/s 62.0 mm
11:00 18.7° 1001.7 hPa 2.4 m/s 64.1 mm 18.7° 1001.8 hPa 2.0 m/s 19.0° 1001.2 hPa 5.9 m/s 64.1 mm
14:00 20.5° 1000.2 hPa 0.7 m/s 69.6 mm 20.7° 1000.3 hPa 0.4 m/s 18.8° 999.5 hPa 4.1 m/s 69.6 mm
17:00 17.9° 999.4 hPa 1.0 m/s 70.5 mm 17.6° 999.5 hPa 1.0 m/s 21.4° 997.8 hPa 1.8 m/s 70.5 mm
20:00 14.9° 998.6 hPa 1.6 m/s 70.8 mm 14.5° 998.7 hPa 1.5 m/s 18.8° 997.0 hPa 2.3 m/s 70.8 mm
23:00 13.2° 997.9 hPa 4.7 m/s 74.3 mm 12.9° 998.0 hPa 4.8 m/s 16.9° 996.6 hPa 3.3 m/s 74.3 mm
 07:17     19:12    Daglengte: 11:55 Zaterdag 26 Sep
02:00 11.5° 997.3 hPa 8.0 m/s 81.9 mm 11.3° 997.3 hPa 8.2 m/s 13.7° 996.9 hPa 5.7 m/s 81.9 mm
05:00 11.2° 997.5 hPa 7.6 m/s 86.7 mm 11.2° 997.5 hPa 7.5 m/s 11.9° 997.3 hPa 9.1 m/s 86.7 mm
08:00 11.2° 997.8 hPa 6.6 m/s 88.3 mm 11.0° 997.8 hPa 6.8 m/s 13.0° 998.0 hPa 4.0 m/s 88.3 mm
11:00 13.8° 999.8 hPa 5.6 m/s 88.3 mm 13.7° 999.8 hPa 5.8 m/s 15.3° 998.8 hPa 3.5 m/s 88.3 mm
14:00 16.6° 1001.7 hPa 4.9 m/s 88.3 mm 16.4° 1001.9 hPa 4.8 m/s 18.6° 999.3 hPa 6.0 m/s 88.3 mm
17:00 15.8° 1002.9 hPa 5.0 m/s 88.3 mm 15.5° 1003.1 hPa 4.9 m/s 18.6° 1000.4 hPa 6.6 m/s 88.3 mm
20:00 14.8° 1004.4 hPa 5.1 m/s 88.3 mm 14.7° 1004.4 hPa 5.0 m/s 16.1° 1003.9 hPa 6.7 m/s 88.3 mm
23:00 12.7° 1005.5 hPa 3.4 m/s 88.3 mm 12.4° 1005.3 hPa 3.1 m/s 15.0° 1006.8 hPa 6.1 m/s 88.3 mm
 07:18     19:10    Daglengte: 11:52 Zondag 27 Sep
02:00 10.5° 1006.5 hPa 1.5 m/s 88.3 mm 10.2° 1006.3 hPa 1.2 m/s 13.9° 1008.2 hPa 4.7 m/s 88.3 mm
05:00 9.9° 1007.8 hPa 1.4 m/s 88.3 mm 9.6° 1007.7 hPa 1.1 m/s 12.6° 1009.3 hPa 3.6 m/s 88.3 mm
08:00 9.2° 1009.3 hPa 1.3 m/s 88.3 mm 9.0° 1009.1 hPa 1.1 m/s 12.0° 1011.0 hPa 3.2 m/s 88.3 mm
11:00 13.3° 1010.1 hPa 1.2 m/s 88.3 mm 13.1° 1010.1 hPa 1.1 m/s 16.2° 1010.0 hPa 2.9 m/s 88.3 mm
14:00 17.3° 1011.0 hPa 1.1 m/s 88.3 mm 17.1° 1011.1 hPa 1.0 m/s 20.0° 1009.3 hPa 2.3 m/s 88.3 mm
17:00 15.7° 1012.0 hPa 1.6 m/s 88.3 mm 15.3° 1012.3 hPa 1.4 m/s 19.9° 1009.0 hPa 2.8 m/s 88.3 mm
20:00 13.8° 1013.3 hPa 1.9 m/s 88.3 mm 13.5° 1013.5 hPa 1.9 m/s 16.9° 1011.7 hPa 2.4 m/s 88.3 mm
23:00 11.9° 1015.0 hPa 1.8 m/s 88.3 mm 11.5° 1015.0 hPa 1.8 m/s 15.7° 1013.9 hPa 1.2 m/s 88.3 mm
 07:20     19:08    Daglengte: 11:48 Maandag 28 Sep
02:00 9.9° 1016.5 hPa 1.7 m/s 88.3 mm 9.5° 1016.6 hPa 1.7 m/s 14.0° 1014.9 hPa 1.3 m/s 88.3 mm
08:00 8.5° 1018.7 hPa 1.1 m/s 88.3 mm 8.2° 1018.9 hPa 1.1 m/s 12.1° 1016.8 hPa 1.4 m/s 88.3 mm
14:00 18.7° 1020.9 hPa 0.7 m/s 88.3 mm 18.7° 1021.2 hPa 0.6 m/s 18.5° 1017.3 hPa 1.5 m/s 88.3 mm
20:00 16.3° 1021.5 hPa 0.7 m/s 88.3 mm 16.3° 1021.7 hPa 0.6 m/s 16.3° 1019.1 hPa 1.3 m/s 88.3 mm
 07:21     19:06    Daglengte: 11:45 Dinsdag 29 Sep
02:00 9.7° 1022.9 hPa 1.2 m/s 88.3 mm 9.3° 1023.1 hPa 1.2 m/s 14.5° 1021.3 hPa 1.2 m/s 88.3 mm
08:00 9.4° 1022.1 hPa 1.0 m/s 88.3 mm 9.0° 1022.2 hPa 1.1 m/s 13.5° 1021.5 hPa 0.4 m/s 88.3 mm
14:00 19.5° 1020.5 hPa 1.2 m/s 88.3 mm 19.5° 1020.6 hPa 1.1 m/s 20.1° 1018.9 hPa 1.7 m/s 88.3 mm
20:00 15.1° 1017.9 hPa 1.7 m/s 88.4 mm 14.9° 1018.0 hPa 1.7 m/s 17.3° 1016.6 hPa 1.8 m/s 88.4 mm
 07:22     19:04    Daglengte: 11:42 Woensdag 30 Sep
02:00 12.5° 1017.7 hPa 1.9 m/s 88.6 mm 12.1° 1017.9 hPa 2.0 m/s 16.8° 1015.5 hPa 1.1 m/s 88.6 mm
08:00 12.8° 1016.2 hPa 0.2 m/s 88.6 mm 12.6° 1016.3 hPa 0.1 m/s 15.5° 1014.8 hPa 1.7 m/s 88.6 mm
14:00 22.7° 1014.7 hPa 1.0 m/s 88.6 mm 22.7° 1014.7 hPa 1.0 m/s 88.6 mm
20:00 19.6° 1015.0 hPa 0.9 m/s 88.6 mm 19.6° 1015.0 hPa 0.9 m/s 88.6 mm
 07:24     19:02    Daglengte: 11:38 Donderdag 01 Okt
02:00 13.1° 1020.6 hPa 1.6 m/s 0.2 mm
08:00 12.3° 1020.0 hPa 1.7 m/s 0.0 mm
14:00 20.3° 1018.2 hPa 0.8 m/s 0.0 mm
20:00 15.2° 1018.0 hPa 0.5 m/s 0.0 mm
 07:25     19:00    Daglengte: 11:35 Vrijdag 02 Okt
02:00 13.7° 1018.0 hPa 1.5 m/s 0.3 mm
08:00 13.0° 1017.3 hPa 1.6 m/s 0.7 mm
14:00 20.6° 1016.1 hPa 0.9 m/s 0.4 mm
20:00 15.7° 1016.5 hPa 0.7 m/s 0.3 mm
 07:26     18:58    Daglengte: 11:32 Zaterdag 03 Okt
02:00 14.0° 1017.3 hPa 1.5 m/s 0.4 mm
08:00 13.0° 1017.6 hPa 1.5 m/s 0.2 mm
14:00 20.2° 1016.7 hPa 0.7 m/s 0.4 mm
20:00 15.4° 1017.2 hPa 0.7 m/s 0.7 mm
 07:27     18:57    Daglengte: 11:30 Zondag 04 Okt
02:00 13.6° 1018.1 hPa 1.5 m/s 1.5 mm
08:00 12.8° 1018.1 hPa 1.4 m/s 0.9 mm
14:00 20.3° 1017.5 hPa 0.7 m/s 0.5 mm
20:00 15.2° 1018.3 hPa 0.6 m/s 0.3 mm
 07:29     18:55    Daglengte: 11:26 Maandag 05 Okt
02:00 13.7° 1019.1 hPa 1.6 m/s 0.5 mm
08:00 12.7° 1018.6 hPa 1.5 m/s 0.3 mm
14:00 20.4° 1017.5 hPa 0.9 m/s 0.3 mm
20:00 15.3° 1017.6 hPa 0.7 m/s 1.0 mm
 07:30     18:53    Daglengte: 11:23 Dinsdag 06 Okt
02:00 13.6° 1018.1 hPa 1.6 m/s 0.6 mm
FMI Hirlam - 7.5 km EWN WRFDA - 12 km DWD ICON - 7 km GFS - 25 km Basiskaart






























































Updatetijd (Europe/Amsterdam) Resolutie Lengte Stap
FMI Hirlam 02:00, 08:00, 14:00, 20:00 7.5 km 49h 1h
EWN WRFDA 22:00, 04:00, 10:00, 16:00 12 km 73h 1h
DWD ICON 23:45, 05:45, 11:45, 17:45 7 km 75h 1h
GFS 01:45, 07:45, 13:45, 19:45 25 km 237h 3h
30+ mm
25-30 mm
20-25 mm
15-20 mm
10-15 mm
6-10 mm
4-6 mm
2-4 mm
1-2 mm
0.5-1 mm
0.2-0.5 mm
0.1-0.2 mm
30+ mm
25-30 mm
20-25 mm
15-20 mm
10-15 mm
6-10 mm
4-6 mm
2-4 mm
1-2 mm
0.5-1 mm
0.2-0.5 mm
0.1-0.2 mm
Sneeuwval
Natte sneeuw
Hagel
Vorst
30+ mm
25-30 mm
20-25 mm
15-20 mm
10-15 mm
6-10 mm
4-6 mm
2-4 mm
1-2 mm
0.5-1 mm
0.2-0.5 mm
0.1-0.2 mm
Sneeuwval
Natte sneeuw
Hagel
Vorst
Onweer
50 mm
40 mm
30 mm
26 mm
22 mm
18 mm
14 mm
10 mm
9 mm
8 mm
7 mm
6 mm
5 mm
4.5 mm
4 mm
3.5 mm
3 mm
2.5 mm
2 mm
1.5 mm
1 mm
0.8 mm
0.6 mm
0.4 mm
0.2 mm
0.05 mm
35°
30°
25°
20°
15°
10°
-5°
-10°
-15°
-20°
-25°
-30°
-35°
33> m/s
29 m/s
25 m/s
21 m/s
17 m/s
14 m/s
11 m/s
8 m/s
5 m/s
3 m/s
0 m/s
2600 J/kg
2400 J/kg
2200 J/kg
2000 J/kg
1800 J/kg
1600 J/kg
1400 J/kg
1200 J/kg
1000 J/kg
800 J/kg
600 J/kg
400 J/kg
200 J/kg
70 dBZ
65 dBZ
60 dBZ
55 dBZ
50 dBZ
45 dBZ
40 dBZ
35 dBZ
30 dBZ
25 dBZ
20 dBZ
15 dBZ
10 dBZ
5 dBZ
-1 K
-2 K
-3 K
-4 K
-5 K
-6 K
-7 K
-8 K
-9 K
950 m²/s²
900 m²/s²
850 m²/s²
800 m²/s²
750 m²/s²
700 m²/s²
650 m²/s²
600 m²/s²
550 m²/s²
500 m²/s²
450 m²/s²
400 m²/s²
350 m²/s²
300 m²/s²
250 m²/s²
200 m²/s²
150 m²/s²
100 m²/s²
46 m/s
44 m/s
42 m/s
40 m/s
38 m/s
36 m/s
34 m/s
32 m/s
30 m/s
28 m/s
26 m/s
24 m/s
22 m/s
20 m/s
16 m/s
12 m/s
8 m/s
4 m/s
30 m/s
28 m/s
26 m/s
24 m/s
22 m/s
20 m/s
18 m/s
16 m/s
14 m/s
12 m/s
10 m/s
8 m/s
6 m/s
4 m/s
2 m/s
3.0
2.8
2.6
2.4
2.2
2.0
1.8
1.6
1.4
1.2
1.0
0.8
0.6
0.4
0.2
15
14
13
12
11
10
9
8
7
6
5
4
3
2
1
90%
80%
70%
60%